Starlink 3173

operational
NORAD ID: 51111 Int'l Des: 2022-005 Owner: SPXS Country: US Constellation: starlink
LEOCIRCULAR

Starlink 3173について

説明を読み込み中...

リアルタイム位置

3D地球を読み込み中...

次回通過

高度履歴

Altitude vs Time

uPlot chart will show altitude changes over time

軌道要素

1 51111U 22005H 25350.28071706 .00000692 00000-0 61574-4 0 9998
2 51111 53.2188 303.5590 0001489 89.2963 270.8200 15.08841456216282
Epoch: Dec 16, 2025 • Age: 17 hours

現在のステータス

高度 545.7 km
速度 7.59 km/s
衛星直下点 -19.84°S, 57.04°E
打ち上げ日 Jan 19, 2022
運用期間 3.9 years
タイプ internet

技術仕様

分類 Payload
質量 297.00 kg
乾燥質量 275.00 kg
総質量 297.00 kg
長さ 0.20 m
直径 2.80 m
スパン 9.00 m
形状 Box + pan
製造者 SPXS
バスタイプ Starlink
フェーズステータス In Orbit
所有者/国 SPXS/US

大規模コンステレーション

Loading constellations...